Ofira, Egypt

6:52 AM EET on April 21, 2018 (GMT +0200)
Ofira

Weather History for 62460 - August, 2013

Change the Weather History Date:

Wednesday, August 7, 2013

  Actual Average Record
Temperature  
Mean Temperature 92 °F -  
Max Temperature 104 °F 98 °F - ()
Min Temperature 80 °F 81 °F - ()
Cooling Degree Days 27    
Growing Degree Days 42 (Base 50)    
Moisture  
Dew Point 64 °F    
Average Humidity 47    
Maximum Humidity 79    
Minimum Humidity 12    
Precipitation  
Precipitation 0.00 in 0.00 in - ()
Sea Level Pressure  
Sea Level Pressure 29.68 in    
Wind  
Wind Speed 4 mph ()    
Max Wind Speed 14 mph    
Max Gust Speed -    
Visibility 4.3 miles    
Events      
T = Trace of Precipitation, MM = Missing Value Source: Averaged Metar Reports

Daily Weather History Graph

Daily Weather History Graph

Search for Another Location

Airport or City:

Astronomy

Aug. 07, 2013 Rise Set
Actual Time 5:08 AM EET 6:27 PM EET
Civil Twilight 4:43 AM EET 6:52 PM EET
Nautical Twilight 4:13 AM EET 7:22 PM EET
Astronomical Twilight 3:42 AM EET 7:53 PM EET
Moon 5:29 AM EET (8/7) 6:34 PM EET (8/7)
Length of Visible Light 14h 09m
Length of Day
13h 19m
New Moon, 0% of the Moon is Illuminated
Aug 7
New Moon
Aug 14
First Quarter
Aug 21
Full
Aug 28
Last Quarter
Sep 5
New

Hourly Weather History & Observations

Time (EET) Temp. Heat Index Dew Point Humidity Pressure Visibility Wind Dir Wind Speed Gust Speed Precip Events Conditions
12:00 AM 84.2 °F 89.6 °F 71.6 °F 66% 29.65 in - Calm Calm - N/A   Clear
1:00 AM 82.4 °F 87.2 °F 71.6 °F 70% 29.65 in - North 1.2 mph - N/A   Clear
2:00 AM 80.6 °F 84.6 °F 71.6 °F 74% 29.65 in - Variable 3.5 mph - N/A   Clear
3:00 AM 80.6 °F 84.6 °F 71.6 °F 74% 29.65 in - East 1.2 mph - N/A   Clear
4:00 AM 80.6 °F 84.6 °F 71.6 °F 74% 29.68 in - Calm Calm - N/A   Clear
5:00 AM 80.6 °F 85.4 °F 73.4 °F 79% 29.68 in - Variable 3.5 mph - N/A   Clear
6:00 AM 80.6 °F 85.4 °F 73.4 °F 79% 29.68 in - NNE 5.8 mph - N/A   Clear
7:00 AM 86.0 °F 99.3 °F 78.8 °F 79% 29.68 in 4.3 mi NNE 6.9 mph - N/A   Unknown
8:00 AM 91.4 °F 92.1 °F 62.6 °F 38% 29.71 in - North 13.8 mph - N/A   Clear
9:00 AM 93.2 °F 92.6 °F 59.0 °F 32% 29.71 in - NNE 12.7 mph - N/A   Clear
10:00 AM 95.0 °F 93.0 °F 55.4 °F 26% 29.71 in - NNE 11.5 mph - N/A   Clear
11:00 AM 98.6 °F - 51.8 °F 21% 29.71 in - NE 6.9 mph - N/A   Clear
12:00 PM 104.0 °F - 42.8 °F 12% 29.71 in - ESE 5.8 mph - N/A   Clear
1:00 PM 104.0 °F - 42.8 °F 12% 29.71 in - SSE 8.1 mph - N/A   Clear
2:00 PM 98.6 °F 99.4 °F 60.8 °F 29% 29.68 in - South 9.2 mph - N/A   Clear
3:00 PM 100.4 °F 101.3 °F 60.8 °F 27% 29.68 in - South 11.5 mph - N/A   Clear
4:00 PM 98.6 °F 97.6 °F 57.2 °F 25% 29.65 in - South 8.1 mph - N/A   Clear
5:00 PM 95.0 °F 96.0 °F 62.6 °F 34% 29.65 in - South 10.4 mph - N/A   Clear
6:00 PM 91.4 °F 91.4 °F 60.8 °F 36% 29.65 in - SSE 6.9 mph - N/A   Clear
7:00 PM 89.6 °F 92.2 °F 66.2 °F 46% 29.68 in - SE 2.3 mph - N/A   Clear
8:00 PM 87.8 °F 91.4 °F 68.0 °F 52% 29.68 in - SE 3.5 mph - N/A   Clear
9:00 PM 87.8 °F 89.4 °F 64.4 °F 46% 29.68 in - Variable 3.5 mph - N/A   Clear
10:00 PM 86.0 °F 87.3 °F 64.4 °F 48% 29.68 in - Calm Calm - N/A   Clear
11:00 PM 84.2 °F 85.0 °F 62.6 °F 48% 29.68 in - Calm Calm - N/A   Clear